Location: Puketoi
(40.5833°S, 176.0167°E)
Time: 15:37:06
(UTC+00:00)

IRS-1C - Pass Details

Date: 08 February 2023
Orbit: 815 x 816 km, 99.0° (Epoch: 22 March)

Event Time Altitude Azimuth Distance (km) Brightness Sun altitude
Exits shadow 15:56:51 20° 343° (NNW) 1,796 5.4 -16.7°
Maximum altitude 16:00:13 45° 280° (W) 1,110 4.4 -16.2°
Drops below altitude 10° 16:05:23 10° 207° (SSW) 2,438 6.7 -15.4°
Sets 16:07:51 0° 200° (SSW) 3,378 7.5 -15.0°
